This demonstration page uses our WeatherBlox Daily Observations layout. Learn more.

Left ArrowRight Arrow

31.31129, -92.44514

Hourly Observations for August 8, 2016

Temp ( °F °C ) Dew Point ( °F °C ) Humidity (%) Winds ( mph kmh ) Pressure ( in mb ) Visibility ( mi km ) Precip ( " mm )
12:53 am 00:53 Mostly Clear with Light Rain 73 22.8 71 21.7 94 94 VRB 3 6 29.93 1014 10 16 0.02 0.51
1:53 am 01:53 Mostly Clear 73 22.8 72 22.2 96 96 S 5 7 29.89 1012 10 16 0.01 0.25
2:53 am 02:53 Clear 73 22.8 71 21.7 94 94 S 5 7 29.84 1011 10 16 0.00 0.00
3:53 am 03:53 Clear 72 22.2 72 22.2 100 100 NW 8 13 29.88 1012 10 16 0.00 0.00
4:53 am 04:53 Clear 72 22.2 71 21.7 97 97 NW 5 7 29.89 1012 9 14 0.00 0.00
5:53 am 05:53 Clear 72 22.2 71 21.7 97 97 WNW 6 9 29.90 1013 9 14 0.00 0.00
6:10 am 06:10 Mostly Clear 72 22.2 71 21.7 97 97 NW 7 11 29.91 1013 9 14 0.00 0.00
6:37 am 06:37 Mostly Cloudy 72 22.2 71 21.7 97 97 NW 6 9 29.91 1013 9 14 0.00 0.00
6:53 am 06:53 Cloudy 72 22.2 71 21.7 97 97 N 5 7 29.92 1013 8 13 0.00 0.00
7:20 am 07:20 Partly Cloudy 72 22.2 72 22.2 100 100 NNW 6 9 29.91 1013 8 13 0.00 0.00
7:41 am 07:41 Mostly Cloudy 73 22.8 72 22.2 96 96 NNW 6 9 29.91 1013 9 14 0.00 0.00
7:53 am 07:53 Cloudy 73 22.8 72 22.2 96 96 NNW 6 9 29.93 1014 9 14 0.00 0.00
8:39 am 08:39 Partly Cloudy 75 23.9 72 22.2 90 90 NW 6 9 29.94 1014 10 16 0.00 0.00
8:53 am 08:53 Sunny 76 24.4 72 22.2 88 88 NNW 7 11 29.94 1014 10 16 0.00 0.00
9:53 am 09:53 Sunny 81 27.2 73 22.8 77 77 NNW 5 7 29.94 1014 10 16 0.00 0.00
10:53 am 10:53 Mostly Cloudy 84 28.9 74 23.3 72 72 N 7 11 29.95 1014 10 16 0.00 0.00
11:53 am 11:53 Partly Cloudy 86 30 73 22.8 65 65 VRB 5 7 29.95 1014 10 16 0.00 0.00
12:53 pm 12:53 Cloudy 86 30 73 22.8 65 65 NE 7 11 29.95 1014 10 16 0.00 0.00
1:53 pm 13:53 Mostly Cloudy 88 31.1 74 23.3 63 63 VRB 5 7 29.93 1014 10 16 0.00 0.00
2:53 pm 14:53 Mostly Sunny 89 31.7 74 23.3 61 61 VRB 3 6 29.90 1013 10 16 0.00 0.00
3:53 pm 15:53 Sunny 91 32.8 74 23.3 57 57 Calm 29.88 1012 10 16 0.00 0.00
4:53 pm 16:53 Mostly Sunny 92 33.3 75 23.9 58 58 N 5 7 29.86 1011 10 16 0.00 0.00
5:53 pm 17:53 Mostly Sunny 91 32.8 74 23.3 57 57 N 7 11 29.85 1011 10 16 0.00 0.00
6:53 pm 18:53 Sunny 90 32.2 74 23.3 59 59 N 3 6 29.84 1011 10 16 0.00 0.00
7:53 pm 19:53 Sunny 86 30 77 25 75 75 Calm 29.84 1011 10 16 0.00 0.00
8:53 pm 20:53 Clear 81 27.2 77 25 88 88 Calm 29.86 1011 10 16 0.00 0.00
9:53 pm 21:53 Clear 80 26.7 78 25.6 94 94 Calm 29.89 1012 9 14 0.00 0.00
10:53 pm 22:53 Clear 79 26.1 76 24.4 90 90 Calm 29.90 1012 10 16 0.00 0.00
11:53 pm 23:53 Clear 78 25.6 77 25 97 97 Calm 29.91 1013 9 14 0.00 0.00

Powered by AerisWeather